This demonstration page uses our WeatherBlox Daily Observations layout. Learn more.

Left ArrowRight Arrow

Hourly Observations for October 5, 2018

Temp ( °F °C ) Dew Point ( °F °C ) Humidity (%) Winds ( mph kmh ) Pressure ( in mb ) Visibility ( mi km ) Precip ( " mm )
12:51 am 00:51 Clear 61 16.1 47 8.3 60 60 Calm 29.81 1010 10 16 0.00 0.00
1:51 am 01:51 Clear 61 16.1 47 8.3 60 60 SE 3 6 29.82 1010 10 16 0.00 0.00
2:51 am 02:51 Clear 62 16.7 47 8.3 58 58 SE 6 9 29.81 1010 10 16 0.00 0.00
3:51 am 03:51 Clear 57 13.9 46 7.8 67 67 ESE 3 6 29.83 1010 10 16 0.00 0.00
4:51 am 04:51 Clear 56 13.3 46 7.8 70 70 Calm 29.83 1010 10 16 0.00 0.00
5:51 am 05:51 Clear 57 13.9 46 7.8 67 67 E 3 6 29.84 1011 10 16 0.00 0.00
6:51 am 06:51 Sunny 56 13.3 47 8.3 72 72 Calm 29.86 1011 10 16 0.00 0.00
7:51 am 07:51 Sunny 64 17.8 49 9.4 58 58 Calm 29.87 1012 10 16 0.00 0.00
8:27 am 08:27 Mostly Sunny 68 20 50 10 53 53 W 3 6 29.85 1011 10 16 0.00 0.00
8:51 am 08:51 Sunny 69 20.6 49 9.4 49 49 Calm 29.87 1012 10 16 0.00 0.00
9:51 am 09:51 Sunny 74 23.3 51 10.6 45 45 Calm 29.86 1011 10 16 0.00 0.00
10:51 am 10:51 Sunny 76 24.4 48 8.9 37 37 Calm 29.83 1010 10 16 0.00 0.00
11:51 am 11:51 Sunny 79 26.1 45 7.2 30 30 S 5 7 29.80 1009 10 16 0.00 0.00
12:51 pm 12:51 Sunny 81 27.2 43 6.1 26 26 VRB 3 6 29.77 1008 10 16 0.00 0.00
1:51 pm 13:51 Sunny 85 29.4 40 4.4 20 20 W 8 13 29.73 1007 10 16 0.00 0.00
2:51 pm 14:51 Sunny 85 29.4 40 4.4 20 20 NW 12 19 29.71 1006 10 16 0.00 0.00
3:51 pm 15:51 Sunny 84 28.9 38 3.3 19 19 NW 10 17 29.70 1006 10 16 0.00 0.00
4:51 pm 16:51 Sunny 83 28.3 37 2.8 19 19 NW 10 17 29.69 1006 10 16 0.00 0.00
5:51 pm 17:51 Sunny 80 26.7 36 2.2 20 20 WNW 9 15 29.70 1006 10 16 0.00 0.00
6:51 pm 18:51 Clear 76 24.4 41 5 29 29 NW 15 24 29.73 1007 10 16 0.00 0.00
7:51 pm 19:51 Clear 74 23.3 43 6.1 33 33 NW 15 24 29.73 1007 10 16 0.00 0.00
8:51 pm 20:51 Clear 72 22.2 44 6.7 37 37 NW 15 24 29.74 1007 10 16 0.00 0.00
9:51 pm 21:51 Clear 68 20 43 6.1 40 40 WNW 9 15 29.75 1007 10 16 0.00 0.00
10:51 pm 22:51 Clear 66 18.9 44 6.7 45 45 WNW 9 15 29.75 1008 10 16 0.00 0.00
11:51 pm 23:51 Clear 64 17.8 44 6.7 48 48 WNW 7 11 29.75 1008 10 16 0.00 0.00

Powered by AerisWeather